Flag for U.S.A. Weather past 2 weeks in Warminster Township, Pennsylvania, U.S.A.

Now
72 °F

Sunny.


Feels Like: 75 °F
Forecast: 64 / 80 °F
Wind: No wind

Location: Doylestown Airport

Current Time: Jul 2, 2015 at 1:10:20 PM

Latest Report: Jul 2, 2015 at 12:54 PM


Visibility: 10 mi

Pressure: 29.90 "Hg

Humidity: 68%

Dew point: 61 °F

Location of Warminster TownshipLocation

Historic Weather in Warminster Township — Graph

°F

Warminster Township temperature yesterday

Maximum temperature yesterday: 81 °F (at 2:54 PM)
Minimum temperature yesterday: 64 °F (at 5:54 AM)
Average temperature yesterday: 73 °F

Past Weeks' High & Low Weather Summary

 TemperatureHumidityPressure
High88 °F (Jun 23, 2:54 PM)100% (Jun 18, 4:54 AM)30.12 "Hg (Jun 18, 4:54 AM)
Low57 °F (Jun 27, 4:54 PM)40% (Jun 22, 4:54 PM)29.64 "Hg (Jun 28, 5:54 AM)
Average70 °F76%29.92 "Hg
* Reported Jun 17 11:54 AM — Jul 2 11:54 AM, Warminster Township, Weather by CustomWeather, © 2015

Note: Actual official high and low records may vary slightly from our data, if they occured in-between our weather recording intervals... More about our weather records

Advertising

Warminster Township weather history for previous 24 hours

 ConditionsComfort  
Time TempWeatherWind HumidityBarometerVisibility
11:54 AM
Thu, Jul 2
70 °FSunny.No wind76%29.90 "Hg10 mi
10:54 AM73 °FSunny.3 mph71%29.90 "Hg10 mi
9:54 AM72 °FPassing clouds.6 mph68%29.91 "Hg10 mi
8:54 AM68 °FScattered clouds.3 mph82%29.90 "Hg10 mi
7:54 AM65 °FBroken clouds.No wind91%29.90 "Hg10 mi
6:54 AM63 °FScattered clouds.3 mph93%29.89 "Hg10 mi
5:54 AM60 °FPassing clouds.No wind96%29.88 "Hg10 mi
4:54 AM60 °FClear.No wind96%29.86 "Hg10 mi
3:54 AM60 °FClear.No wind96%29.87 "Hg10 mi
2:54 AM62 °FClear.No wind90%29.87 "Hg10 mi
1:54 AM62 °FClear.No wind93%29.88 "Hg10 mi
12:54 AM67 °FClear.No wind76%29.89 "Hg10 mi
11:54 PM
Wed, Jul 1
66 °FClear.No wind78%29.88 "Hg10 mi
10:54 PM72 °FClear.No wind61%29.87 "Hg10 mi
9:54 PM73 °FClear.3 mph59%29.87 "Hg10 mi
8:54 PM74 °FSunny.6 mph57%29.84 "Hg10 mi
7:54 PM76 °FSunny.3 mph54%29.82 "Hg10 mi
6:54 PM79 °FSunny.10 mph50%29.80 "Hg10 mi
5:54 PM79 °FSunny.12 mph50%29.79 "Hg10 mi
4:54 PM81 °FBroken clouds.6 mph51%29.79 "Hg10 mi
3:54 PM80 °FPassing clouds.13 mph52%29.78 "Hg10 mi
2:54 PM81 °FPassing clouds.12 mph51%29.78 "Hg10 mi
1:54 PM80 °FSunny.8 mph56%29.79 "Hg10 mi
Weather by CustomWeather, © 2015

See weather overviewHow to use our weather pages